Location: Barcelona
(41.3830°N, 2.1830°E)
Time: 19:16:12
(UTC+01:00)

ISS - Pass Details

Date: 21 January 2021
Orbit: 418 x 421 km, 51.6° (Epoch: 24 January)

Event Time Altitude Azimuth Distance (km) Brightness Sun altitude
Rises 19:26:10 0° 252° (WSW) 2,362 1.8 -17.2°
Reaches altitude 10° 19:28:21 10° 260° (W) 1,501 0.4 -17.6°
Maximum altitude 19:31:33 40° 331° (NNW) 634 -2.8 -18.2°
Enters shadow 19:32:27 33° 11° (N) 739 -2.7 -18.3°
